Flag for Germany Weather past 2 weeks in Singen (Hohentwiel), Baden-Württemberg, Germany

Now
36 °F

Passing clouds.


Feels Like: 33 °F
Forecast: 24 / 50 °F
Wind: 3 mph from Northeast

Location: Konstanz

Current Time: Mar 6, 2015 at 10:07:46 PM

Latest Report: Mar 6, 2015 at 9:00 PM


Visibility: 19 mi

Pressure: 30.64 "Hg

Humidity: 71%

Dew point: 28 °F

Location of Singen (Hohentwiel)Location

Historic Weather in Singen (Hohentwiel) — Graph

°F

Singen (Hohentwiel) temperature yesterday

Maximum temperature yesterday: 43 °F (at 3:00 PM)
Minimum temperature yesterday: 33 °F (at 6:00 AM)
Average temperature yesterday: 37 °F

Past Weeks' High & Low Weather Summary

 TemperatureHumidityPressure
High52 °F (Mar 3, 4:00 PM)100% (Feb 20, 4:00 AM)30.71 "Hg (Feb 20, 4:00 AM)
Low26 °F (Feb 20, 8:00 AM)40% (Feb 20, 5:00 PM)29.55 "Hg (Feb 21, 1:00 PM)
Average37 °F80%30.08 "Hg
* Reported Feb 19 9:00 PM — Mar 6 9:00 PM, Singen (Hohentwiel), Weather by CustomWeather, © 2015

Note: Actual official high and low records may vary slightly from our data, if they occured in-between our weather recording intervals... More about our weather records

Advertising

Singen (Hohentwiel) weather history for previous 24 hours

 ConditionsComfort  
Time TempWeatherWind HumidityBarometerVisibility
9:00 PM
Fri, Mar 6
36 °FPassing clouds.3 mph71%30.64 "Hg19 mi
8:00 PM38 °FPassing clouds.1 mph61%30.61 "Hg19 mi
7:00 PM41 °FPassing clouds.2 mph53%30.60 "Hg47 mi
6:00 PM43 °FScattered clouds.1 mph52%30.60 "Hg37 mi
5:00 PM46 °FPassing clouds.2 mph42%30.58 "Hg19 mi
4:00 PM47 °FPassing clouds.3 mph43%30.60 "Hg19 mi
3:00 PM45 °FPassing clouds.3 mph43%30.61 "Hg19 mi
2:00 PM45 °FPassing clouds.3 mph46%30.62 "Hg16 mi
1:00 PM43 °FPassing clouds.3 mph56%30.65 "Hg16 mi
12:00 PM42 °FPassing clouds.2 mph59%30.68 "Hg12 mi
11:00 AM40 °FPassing clouds.2 mph66%30.70 "Hg12 mi
10:00 AM37 °FSunny.2 mph70%30.71 "Hg12 mi
9:00 AM33 °FSunny.1 mph78%30.71 "Hg11 mi
8:00 AM29 °FPassing clouds.2 mph93%30.71 "Hg12 mi
7:00 AM29 °FSunny.2 mph93%30.70 "Hg12 mi
6:00 AM30 °FPassing clouds.2 mph92%30.69 "Hg16 mi
5:00 AM29 °FClear.1 mph90%30.68 "Hg17 mi
4:00 AM30 °FClear.1 mph89%30.68 "Hg19 mi
3:00 AM31 °FClear.2 mph84%30.67 "Hg25 mi
2:00 AM31 °FClear.2 mph85%30.68 "Hg28 mi
1:00 AM32 °FClear.1 mph81%30.67 "Hg22 mi
12:00 AM33 °FPassing clouds.1 mph80%30.67 "Hg22 mi
10:00 PM
Thu, Mar 5
36 °FOvercast.2 mph69%30.67 "Hg34 mi
Weather by CustomWeather, © 2015

See weather overviewHow to use our weather pages